Wetbulb
74.36 74.76 74.73 75.44 75.75 76.43 76.38 73.50 73.36 78.06 77.99 77.74 75.32 73.33 77.01 77.02 78.19 77.80 77.73 77.56 76.55 76.71 76.94 76.70 76.09 76.70 75.92 74.91 74.80 74.42 73.72 73.60 71.81 73.84 75.25 77.38 76.61 74.32 69.01 66.49 64.15 60.68 60.20
74.25 75.37 74.80 75.47 75.42 75.31 75.79 76.76 77.71 77.77 77.71 78.49 77.16 76.07 76.47 77.43 77.57 77.81 76.38 75.72 75.83 75.48 75.69 76.00 76.89 75.34 76.63 76.99 75.30 74.69 73.89 74.41 72.97 71.54 73.73 75.05 74.77 75.70 72.29 72.16 65.92 61.95 58.99
74.82 74.58 74.43 74.38 75.70 75.46 75.13 75.55 76.25 76.76 77.74 77.14 77.77 78.07 77.54 77.64 77.52 78.11 77.49 76.55 76.45 76.62 75.73 75.15 75.62 75.70 75.50 76.06 76.02 75.07 75.15 74.82 73.47 73.10 72.72 74.24 73.64 73.84 72.69 73.60 66.61 62.68 60.60
73.01 74.07 73.66 75.10 74.51 75.11 76.37 75.69 75.17 76.31 75.97 76.39 77.95 77.86 77.85 77.48 77.48 77.04 76.75 76.43 76.08 75.75 76.09 75.69 75.85 75.34 74.64 75.74 75.63 75.47 74.66 74.30 74.24 73.98 72.76 71.67 72.37 72.25 69.95 70.83 67.44 65.45 59.15
73.59 74.18 75.31 75.61 76.69 77.64 78.06 78.13 77.58 76.66 76.64 77.07 76.56 76.43 77.27 76.43 75.40 76.16 75.97 76.92 76.16 74.72 76.23 76.71 75.99 74.83 70.91 72.44 75.34 75.86 75.22 73.63 73.46 72.16 71.64 71.94 71.46 71.20 70.43 70.89 69.20 70.37 66.20
73.04 74.99 76.68 75.78 77.50 77.91 78.50 78.80 78.43 78.11 77.86 78.22 77.01 76.87 75.85 75.25 69.83 71.43 74.86 75.23 75.32 75.04 74.74 75.01 75.75 73.05 70.18 68.55 68.37 67.47 71.00 74.29 73.87 72.71 71.33 70.71 72.16 71.94 72.14 71.32 70.63 68.65 66.60
72.83 72.86 75.93 76.18 76.48 76.72 76.89 76.71 76.52 76.52 77.11 76.73 76.15 74.91 75.50 76.71 67.79 70.09 70.90 74.83 76.08 76.62 76.37 76.01 75.58 75.21 72.12 71.65 66.08 65.73 64.77 64.29 65.75 70.26 71.59 71.61 71.76 71.21 71.88 71.58 71.38 69.97 68.40
72.13 73.15 74.09 75.06 75.70 75.99 75.24 74.83 74.93 75.18 75.84 74.44 74.56 75.09 74.86 75.16 65.22 67.51 68.26 74.77 74.52 74.94 75.31 75.97 75.83 76.03 75.84 74.29 71.42 71.05 68.43 61.25 61.23 68.80 67.65 64.25 63.70 64.15 66.89 70.19 69.99 66.78 64.80
69.22 70.08 72.54 74.19 73.82 74.81 74.44 75.09 76.27 75.52 75.51 75.56 74.94 74.36 73.71 70.86 63.07 61.61 64.67 74.49 73.98 73.29 74.34 67.00 69.24 69.95 66.51 65.29 72.22 68.47 65.66 59.75 56.40 57.68 58.06 57.77 57.37 57.51 58.88 65.61 62.69 65.26 63.23
68.77 69.76 69.04 70.57 70.67 72.19 73.08 72.83 73.97 73.80 74.38 74.79 74.61 74.15 66.31 64.41 59.36 59.78 63.42 69.96 71.66 72.62 74.15 62.18 57.66 60.29 60.33 60.89 70.90 69.07 63.69 60.79 60.73 61.93 60.02 54.35 54.80 54.09 55.88 54.03 55.24 55.69 54.25
68.89 68.63 68.72 69.20 69.18 69.49 66.85 66.05 66.03 66.46 67.78 65.59 67.26 66.41 64.03 61.21 60.49 57.49 56.92 66.95 69.66 71.32 67.29 60.34 57.61 54.47 53.34 53.93 56.82 61.33 60.01 61.88 58.39 55.25 53.64 52.09 52.40 51.81 52.21 52.28 53.15 53.70 52.39
69.82 67.74 66.90 67.64 67.58 65.45 63.05 61.87 61.36 61.06 60.17 59.15 59.27 58.87 59.19 59.17 55.37 55.78 56.00 58.07 61.26 61.81 57.78 57.38 54.49 51.77 51.20 52.61 55.41 53.67 53.99 55.31 55.39 54.99 54.26 53.19 52.29 51.80 53.16 52.29 53.53 52.64 53.79
68.81 66.31 65.11 65.25 64.66 63.96 62.92 62.52 61.43 60.94 59.96 59.47 59.33 58.47 57.00 57.00 56.44 53.74 53.78 54.78 55.36 55.24 54.79 53.12 51.56 50.72 51.51 53.49 53.76 54.17 55.13 55.54 55.44 54.21 53.30 52.10 52.64 53.13 53.45 53.38 54.50 53.90 55.23
64.18 64.36 64.15 63.27 61.02 61.28 61.56 61.84 61.84 60.94 60.32 60.52 60.14 59.36 58.63 57.79 56.94 56.94 55.70 54.21 54.10 54.25 54.26 53.47 53.23 53.23 53.26 53.96 54.92 55.58 56.02 56.78 55.09 52.56 51.84 52.55 53.44 53.37 52.77 53.68 53.02 53.16 53.62
63.31 63.03 63.13 62.11 56.95 51.13 48.01 49.73 54.66 49.95 48.77 59.54 58.02 58.60 58.24 54.65 52.36 50.38 53.93 55.16 54.98 52.26 53.75 55.20 55.26 55.14 54.99 54.36 54.31 54.78 55.80 55.72 54.22 53.82 52.52 51.11 50.31 50.70 50.23 52.66 52.07 53.21 54.03
58.46 58.21 58.26 57.37 57.53 55.58 52.63 48.86 44.44 44.10 43.44 42.24 42.83 50.01 49.44 46.46 45.44 44.09 43.95 44.95 46.40 48.50 53.48 52.49 52.01 52.04 51.24 51.91 51.35 51.70 52.75 52.74 52.07 52.75 51.33 50.73 50.38 50.87 50.14 50.64 51.01 51.36 52.48
57.00 56.92 56.70 56.00 56.22 55.39 55.51 53.94 50.58 46.34 42.84 41.44 41.51 42.49 42.56 42.50 42.42 41.98 42.23 43.69 44.76 49.89 52.98 51.99 51.21 50.49 49.92 51.23 51.53 52.15 52.26 52.90 51.55 49.44 50.61 49.07 50.70 49.56 49.02 50.39 50.41 51.38 51.14
61.48 56.76 61.09 60.32 58.65 57.23 56.71 56.82 56.57 53.58 50.41 48.71 42.61 44.12 40.96 41.64 41.99 42.00 43.69 47.55 53.61 53.62 54.02 53.73 52.60 52.81 53.36 52.47 50.04 48.73 49.53 47.71 49.32 49.83 49.97 49.98 50.62 51.45 50.95 51.07 50.88 50.83 50.17
61.05 60.62 61.31 60.20 60.35 59.70 60.34 59.33 58.79 57.12 54.77 52.14 48.65 43.90 41.96 40.59 41.42 42.01 43.11 54.46 55.76 55.17 55.59 54.46 54.57 52.07 51.38 51.02 50.94 51.43 51.79 50.06 50.90 51.06 51.05 50.36 51.02 52.09 51.31 48.92 46.96 45.77 47.04
60.93 58.68 58.02 57.24 57.12 59.26 60.44 60.60 60.36 59.74 58.42 56.77 55.28 52.99 50.34 48.03 50.44 51.09 52.31 55.58 56.50 57.07 55.68 55.12 53.96 53.59 53.46 52.24 53.16 52.49 51.93 49.74 51.12 52.32 52.01 52.29 52.46 52.09 51.21 49.82 48.96 48.01 48.48
59.44 59.26 58.82 58.25 56.42 56.90 58.50 58.80 59.75 58.44 59.33 58.13 57.69 53.56 48.92 53.34 54.05 54.14 54.41 55.62 57.10 58.21 58.56 57.68 56.84 55.89 56.63 55.67 53.92 53.07 52.55 50.53 51.83 51.81 52.13 50.98 50.19 49.14 48.82 48.78 48.21 47.48 47.20
60.20 59.79 59.00 59.65 59.33 58.98 58.30 58.19 57.13 56.05 56.00 54.98 53.81 50.89 47.06 52.61 55.00 56.37 56.85 58.24 58.55 60.30 58.36 58.41 57.04 56.02 54.85 55.64 54.34 52.33 51.76 50.51 51.19 51.36 50.00 48.41 48.54 48.74 48.62 46.32 46.21 47.40 46.08
60.42 59.83 59.67 59.57 60.57 57.91 58.79 58.30 57.59 57.88 56.98 55.75 54.43 52.26 50.93 52.04 53.17 55.82 56.76 57.52 57.60 58.43 58.77 57.96 56.83 55.95 56.19 55.34 55.57 54.32 51.63 50.81 50.16 50.92 50.23 48.55 48.37 48.14 47.77 47.44 47.66 47.91 47.70
60.11 60.32 59.07 58.62 59.90 58.59 58.88 59.50 58.86 52.22 55.84 57.04 56.78 54.79 53.24 53.51 55.02 57.60 56.88 57.31 58.48 58.13 58.26 57.67 57.29 56.18 56.98 56.08 55.96 55.23 55.23 54.50 53.47 51.70 52.36 50.03 48.88 46.84 48.73 48.20 48.32 48.49 48.76
59.34 59.54 59.71 58.95 58.04 57.72 57.64 56.81 57.85 58.78 58.25 57.25 56.41 57.65 56.71 56.48 56.37 57.18 57.28 57.96 57.68 57.98 58.24 58.16 57.44 57.32 57.26 57.25 56.03 55.67 50.41 43.77 51.74 46.82 52.14 52.30 51.62 51.48 49.02 49.50 49.58 49.35 49.62
60.07 59.69 59.54 59.57 59.52 58.67 57.90 57.48 57.61 57.89 57.69 57.98 58.33 59.47 59.91 59.52 58.98 58.74 59.17 59.25 58.66 58.19 58.33 57.87 57.45 57.78 57.71 56.80 56.44 47.21 34.59 37.36 45.74 39.76 52.00 52.12 51.54 51.03 49.85 50.54 52.14 49.12 49.02
MSLP
1013.12 1013.74 1014.21 1014.88 1015.37 1015.78 1016.20 1016.19 1016.47 1016.61 1016.85 1017.04 1017.21 1017.42 1017.53 1017.36 1017.23 1017.37 1017.78 1017.79 1017.88 1017.89 1017.91 1017.84 1017.96 1017.93 1017.92 1017.88 1017.82 1017.73 1017.71 1017.66 1017.89 1017.81 1017.71 1017.95 1018.02 1018.71 1020.13 1020.32 1020.52 1020.87 1021.31
1012.32 1012.94 1013.46 1014.00 1014.65 1015.29 1015.41 1015.76 1016.06 1016.42 1016.89 1016.97 1017.52 1017.74 1017.65 1017.30 1017.30 1017.45 1017.71 1017.64 1017.76 1017.87 1017.81 1017.73 1017.75 1017.70 1017.75 1017.90 1017.88 1017.77 1017.56 1017.37 1017.67 1017.93 1017.86 1018.01 1018.48 1018.60 1019.37 1019.73 1020.27 1021.14 1021.43
1011.44 1012.16 1012.77 1013.30 1013.68 1014.14 1014.90 1015.47 1015.69 1016.06 1016.33 1016.51 1016.60 1016.83 1016.98 1017.06 1017.16 1017.21 1017.37 1017.52 1017.60 1017.60 1017.60 1017.56 1017.63 1017.54 1017.71 1017.73 1017.78 1017.82 1017.84 1017.85 1017.83 1017.90 1018.18 1018.27 1018.95 1019.10 1019.49 1019.63 1020.19 1021.41 1021.68
1010.87 1011.46 1012.01 1012.54 1013.05 1013.37 1013.98 1014.50 1014.95 1015.45 1015.70 1016.12 1016.26 1016.38 1016.68 1016.88 1016.99 1017.10 1017.24 1017.42 1017.54 1017.56 1017.54 1017.41 1017.10 1017.19 1017.37 1017.53 1017.80 1017.93 1017.88 1018.10 1018.22 1018.24 1018.38 1018.68 1019.19 1019.37 1019.25 1020.32 1020.83 1021.12 1021.41
1011.20 1011.26 1011.34 1011.77 1012.32 1012.86 1013.28 1013.80 1014.31 1014.88 1015.53 1015.86 1016.08 1016.39 1016.49 1016.78 1016.81 1016.77 1016.98 1017.07 1017.26 1017.34 1017.27 1017.24 1017.20 1017.16 1017.16 1017.37 1017.61 1017.78 1018.06 1018.19 1018.32 1018.43 1018.54 1018.70 1019.23 1019.40 1019.52 1019.53 1020.02 1020.12 1020.35
1010.85 1011.36 1011.37 1011.59 1011.93 1012.56 1013.16 1013.62 1014.19 1014.63 1015.10 1015.56 1015.88 1016.05 1016.29 1016.36 1016.52 1016.46 1016.49 1016.81 1016.96 1017.07 1017.16 1017.05 1017.27 1017.42 1017.45 1017.44 1017.79 1017.88 1018.15 1018.36 1018.46 1018.51 1018.36 1018.47 1018.68 1018.97 1019.14 1019.38 1019.36 1019.53 1019.75
1011.03 1011.90 1011.93 1011.94 1012.29 1012.69 1013.21 1013.70 1014.12 1014.53 1014.82 1015.15 1015.45 1015.73 1015.95 1016.07 1016.40 1016.45 1016.53 1016.64 1016.60 1016.61 1016.83 1017.02 1016.95 1017.06 1017.35 1017.59 1017.89 1018.16 1018.23 1018.55 1018.67 1018.68 1018.55 1018.66 1018.71 1018.60 1018.53 1018.64 1018.81 1018.94 1019.13
1012.30 1011.68 1011.66 1012.00 1012.56 1012.83 1013.28 1013.66 1013.98 1014.23 1014.53 1014.88 1015.18 1015.36 1015.65 1015.97 1016.36 1016.60 1016.56 1016.60 1016.67 1016.61 1016.62 1016.70 1016.80 1016.99 1017.20 1017.43 1017.83 1018.15 1018.50 1019.03 1019.16 1018.66 1018.83 1019.34 1019.32 1018.97 1018.59 1018.17 1018.34 1019.01 1019.38
1013.11 1012.69 1012.31 1012.42 1012.72 1013.21 1013.60 1013.81 1013.98 1014.38 1014.49 1014.53 1014.62 1015.06 1015.38 1016.18 1016.67 1017.04 1017.02 1016.49 1016.45 1016.72 1016.74 1016.95 1017.07 1017.31 1017.23 1017.34 1017.61 1018.25 1018.90 1019.47 1019.70 1019.53 1019.61 1019.68 1019.54 1019.38 1019.06 1018.64 1019.18 1019.34 1019.94
1012.61 1012.49 1013.01 1012.87 1013.10 1013.69 1014.08 1014.29 1014.39 1014.65 1014.86 1014.91 1014.97 1015.40 1015.94 1016.57 1016.74 1017.00 1016.66 1016.80 1016.09 1016.58 1017.01 1017.69 1017.65 1017.63 1017.83 1018.15 1017.93 1018.07 1018.96 1019.55 1019.72 1019.95 1019.99 1020.06 1020.06 1020.18 1020.07 1020.11 1020.09 1020.21 1020.53
1012.73 1013.08 1013.19 1013.41 1013.80 1014.09 1015.09 1015.16 1015.32 1015.58 1015.75 1016.21 1016.29 1016.52 1016.88 1017.37 1017.49 1017.34 1017.09 1016.88 1016.44 1016.70 1017.54 1018.42 1018.66 1018.21 1018.25 1018.36 1018.44 1018.81 1019.31 1019.70 1020.40 1020.84 1021.04 1021.10 1021.07 1020.94 1020.99 1020.96 1021.02 1020.77 1021.25
1012.53 1013.09 1013.83 1014.06 1014.43 1014.30 1015.43 1015.35 1015.87 1016.13 1016.64 1016.79 1017.63 1017.62 1017.71 1018.08 1018.12 1017.96 1017.48 1017.49 1017.27 1017.64 1018.50 1019.00 1019.36 1019.06 1018.88 1018.99 1019.27 1019.70 1020.14 1020.60 1021.15 1021.63 1022.03 1022.39 1022.34 1022.19 1022.18 1021.86 1021.81 1021.62 1021.76
1013.03 1013.71 1014.28 1014.36 1014.89 1015.11 1015.16 1016.69 1015.62 1016.55 1016.99 1017.64 1018.20 1018.08 1018.28 1018.39 1018.53 1018.70 1018.63 1018.17 1018.02 1018.59 1019.06 1019.14 1019.47 1019.48 1019.74 1019.97 1020.22 1020.41 1020.53 1021.08 1021.64 1022.08 1022.57 1022.85 1022.81 1022.99 1022.74 1022.79 1022.53 1022.35 1022.23
1013.86 1014.26 1014.99 1015.30 1015.42 1015.92 1016.11 1016.40 1016.97 1017.74 1018.32 1018.32 1018.48 1018.37 1018.38 1018.74 1019.10 1019.25 1019.30 1019.21 1019.19 1019.25 1019.55 1019.80 1019.84 1020.04 1020.26 1020.33 1020.72 1020.94 1021.25 1021.56 1021.85 1022.38 1022.58 1022.76 1022.75 1022.73 1022.43 1022.61 1022.49 1022.36 1022.47
1014.55 1015.10 1015.62 1015.98 1016.53 1017.17 1017.99 1018.27 1018.14 1018.91 1019.20 1018.25 1018.61 1018.29 1018.58 1019.31 1019.57 1019.69 1019.47 1019.79 1019.62 1019.81 1020.01 1020.12 1020.39 1020.53 1020.76 1020.91 1021.18 1021.49 1021.61 1022.03 1022.13 1022.47 1022.83 1022.93 1022.77 1022.57 1022.57 1022.29 1022.44 1022.14 1022.32
1015.68 1015.86 1016.32 1016.70 1017.15 1017.64 1018.24 1018.74 1019.18 1019.40 1019.26 1018.95 1018.93 1018.74 1019.64 1019.96 1020.21 1019.92 1019.80 1019.84 1020.26 1020.09 1020.29 1020.32 1020.48 1020.74 1020.97 1021.13 1021.50 1021.76 1021.81 1022.10 1022.16 1022.22 1022.38 1022.35 1022.35 1022.45 1022.31 1022.11 1022.09 1022.52 1022.54
1016.06 1016.25 1016.52 1016.76 1017.42 1017.69 1018.09 1018.14 1018.60 1019.57 1019.64 1019.68 1019.74 1019.71 1020.04 1020.49 1020.64 1020.69 1020.43 1020.52 1020.71 1020.69 1020.70 1020.66 1020.78 1021.07 1021.21 1021.33 1021.30 1021.66 1021.87 1022.38 1022.15 1021.87 1022.01 1022.10 1021.99 1022.30 1022.35 1022.44 1022.27 1022.15 1022.77
1015.84 1016.00 1015.99 1016.35 1016.91 1017.26 1017.62 1017.72 1018.09 1018.65 1019.32 1019.92 1020.10 1020.15 1020.38 1020.68 1021.06 1021.22 1020.92 1020.73 1020.87 1020.86 1020.80 1020.95 1020.87 1020.99 1021.04 1021.38 1021.99 1021.48 1021.58 1022.01 1022.29 1022.05 1021.54 1021.95 1022.41 1022.36 1022.18 1022.47 1022.93 1022.75 1022.77
1015.55 1015.46 1015.74 1016.13 1016.40 1016.62 1016.93 1017.20 1017.42 1017.73 1018.53 1019.35 1019.87 1020.23 1020.51 1020.95 1020.86 1021.03 1020.93 1020.37 1019.95 1020.09 1020.15 1020.40 1020.53 1021.11 1021.32 1021.32 1021.46 1021.95 1021.61 1021.52 1022.15 1022.13 1021.94 1021.90 1022.20 1022.21 1022.50 1022.80 1023.09 1023.24 1023.37
1015.13 1015.45 1015.52 1015.83 1016.27 1016.12 1016.09 1016.21 1016.54 1017.09 1017.71 1018.26 1018.67 1018.96 1019.69 1020.28 1020.39 1020.34 1020.30 1019.79 1019.45 1018.97 1019.38 1019.57 1020.03 1020.48 1020.57 1020.88 1021.07 1021.54 1021.67 1021.51 1021.97 1021.79 1021.84 1021.76 1021.97 1022.10 1022.37 1022.69 1022.84 1023.19 1023.47
1014.76 1015.15 1015.29 1015.30 1015.31 1015.54 1015.61 1015.65 1016.04 1016.22 1016.44 1016.96 1017.18 1017.86 1018.63 1018.76 1018.71 1018.94 1019.21 1019.14 1018.72 1018.31 1018.59 1018.89 1019.27 1019.81 1020.12 1020.33 1020.74 1021.00 1021.05 1021.30 1021.58 1021.65 1021.42 1021.87 1022.37 1022.33 1022.47 1022.81 1023.03 1023.27 1023.41
1013.74 1014.16 1014.49 1014.34 1014.41 1015.00 1015.01 1015.40 1015.70 1015.85 1016.20 1016.63 1017.31 1017.75 1018.01 1018.24 1018.09 1017.98 1017.97 1018.09 1018.14 1018.15 1018.20 1018.63 1019.03 1019.39 1019.72 1020.09 1020.37 1020.47 1020.76 1021.11 1021.18 1021.27 1021.72 1021.95 1022.24 1022.62 1022.77 1023.09 1023.13 1023.36 1023.51
1013.52 1013.43 1013.62 1013.93 1014.10 1014.52 1014.92 1015.06 1014.96 1015.04 1015.32 1015.72 1016.13 1017.05 1017.70 1017.84 1017.68 1017.34 1017.57 1017.78 1018.09 1018.22 1018.30 1018.57 1019.11 1019.35 1019.56 1019.76 1019.91 1020.28 1020.55 1020.94 1021.09 1021.26 1021.67 1022.10 1022.40 1022.59 1022.76 1022.95 1023.00 1023.13 1023.11
1013.76 1013.18 1013.29 1013.46 1013.86 1014.28 1014.32 1014.47 1014.64 1014.76 1014.96 1014.96 1015.30 1015.82 1016.38 1016.68 1016.65 1016.67 1017.06 1017.42 1017.58 1017.52 1017.76 1018.18 1018.59 1018.91 1019.17 1019.36 1019.70 1019.88 1020.27 1020.63 1020.51 1021.17 1021.54 1022.24 1022.31 1022.44 1022.54 1022.61 1022.33 1022.37 1022.57
1013.96 1013.45 1013.16 1013.41 1013.69 1014.06 1014.38 1014.39 1014.25 1014.40 1014.55 1014.91 1015.10 1015.06 1015.41 1015.89 1016.22 1016.31 1016.52 1016.71 1016.95 1017.22 1017.38 1017.68 1018.03 1018.25 1018.53 1018.95 1019.44 1019.52 1019.72 1020.08 1020.41 1020.85 1021.36 1021.53 1021.67 1021.81 1022.14 1022.03 1022.14 1022.30 1022.30
1013.25 1013.04 1013.02 1013.45 1013.48 1013.73 1013.92 1014.12 1014.17 1014.31 1014.34 1014.52 1014.73 1014.96 1015.14 1015.28 1015.45 1015.70 1015.98 1016.22 1016.42 1016.62 1016.72 1016.99 1017.30 1017.61 1017.83 1018.29 1018.68 1019.17 1019.88 1020.09 1020.45 1020.75 1020.86 1021.20 1021.31 1021.51 1021.76 1021.74 1021.78 1021.96 1022.25
Wind_Speed
14 14 14 11 12 8 6 5 8 5 5 6 4 5 7 5 5 5 5 5 4 4 6 4 5 4 2 4 4 4 4 4 3 3 1 4 4 10 9 9 9 8 8
14 12 13 13 14 13 9 8 7 6 6 3 6 10 8 6 6 5 6 7 4 6 7 6 5 4 3 4 4 6 4 3 1 3 2 2 4 6 8 8 6 8 7
14 14 12 12 10 9 12 11 11 10 7 8 6 5 5 5 5 4 5 6 6 6 6 6 8 6 5 4 4 3 4 3 3 2 3 4 4 5 6 3 6 7 7
13 15 13 12 11 10 9 10 4 9 8 7 6 5 6 7 6 6 8 7 7 7 8 8 5 5 5 3 3 4 4 3 3 2 3 2 2 2 5 7 2 5 7
11 11 12 11 9 8 6 6 8 9 8 7 6 6 5 5 7 8 8 6 8 9 7 6 5 5 6 4 2 3 3 3 3 3 3 1 2 2 6 5 4 5 5
4 10 5 8 7 5 3 3 3 3 4 5 6 8 9 8 2 5 10 7 6 6 7 7 6 3 3 5 4 4 2 3 4 4 3 4 3 3 4 4 4 4 3
6 3 2 5 5 5 5 5 5 6 6 7 8 8 7 7 8 5 1 4 5 5 6 6 5 5 3 6 3 3 9 7 1 2 5 3 2 1 2 4 3 2 2
5 2 1 2 5 6 6 7 6 8 8 8 8 8 7 4 4 3 3 3 5 6 6 4 4 4 4 4 6 4 6 7 6 4 4 5 4 4 3 1 4 4 4
7 6 3 2 4 3 5 4 3 5 6 8 9 7 7 6 6 1 5 4 4 8 7 7 5 5 3 1 4 7 6 6 8 11 12 11 16 17 13 3 4 2 2
9 8 3 3 0 1 3 3 4 4 6 6 6 4 6 7 5 5 2 3 3 4 4 6 13 7 11 11 3 6 6 5 4 4 6 9 11 11 16 9 3 4 3
4 4 2 5 5 6 5 5 7 7 6 8 7 7 8 7 5 8 3 3 3 2 3 5 6 11 15 15 14 9 6 7 9 7 6 6 7 7 6 7 6 4 4
6 6 2 3 4 8 4 6 4 5 3 5 3 3 5 5 9 8 7 3 4 4 4 4 5 11 14 14 12 15 16 11 6 6 6 5 6 7 5 6 6 6 6
7 7 6 6 6 5 8 2 7 5 5 3 2 3 3 3 4 10 8 8 11 7 4 10 12 13 13 12 14 13 11 6 5 4 4 4 3 0 2 1 3 5 4
7 9 7 7 9 7 6 5 4 4 3 3 3 4 4 4 3 2 3 5 11 9 9 7 11 11 10 9 6 7 4 4 4 3 2 1 2 2 3 3 2 3 2
7 8 6 6 8 8 7 6 4 5 4 3 3 3 3 3 1 3 3 3 4 6 7 4 3 4 5 5 5 3 4 3 4 3 3 3 2 0 3 3 2 2 1
5 5 4 5 4 5 6 6 11 9 10 12 8 9 5 7 3 7 11 12 8 6 3 4 4 3 4 4 3 3 2 4 3 3 4 4 3 4 2 1 2 2 2
5 4 4 5 4 5 3 4 5 4 9 10 10 12 12 6 7 9 11 11 8 3 3 3 4 3 3 2 4 3 2 1 1 2 2 1 2 1 1 1 1 3 2
7 7 4 5 6 5 4 4 4 5 5 4 4 5 7 8 6 6 8 7 2 2 3 3 3 3 4 2 2 2 4 2 1 1 4 3 1 1 1 2 4 4 3
5 5 4 5 5 5 5 6 6 6 6 5 4 2 5 5 6 5 3 4 2 5 5 4 4 4 3 3 4 3 3 4 2 2 2 2 2 3 3 5 4 5 4
5 4 1 5 3 4 4 5 5 6 6 6 6 6 7 7 5 5 5 4 5 4 6 5 5 6 6 5 4 4 3 4 4 3 4 3 2 2 3 4 4 3 2
7 5 5 5 7 4 1 2 2 1 2 4 4 9 12 6 6 7 6 6 5 3 3 4 5 4 4 4 4 4 4 4 4 4 3 3 3 0 3 3 4 3 3
7 7 6 6 7 6 5 5 5 5 3 3 5 4 8 4 4 5 5 4 4 3 4 4 4 3 4 3 3 2 2 3 3 3 3 4 4 2 3 2 1 3 3
6 5 4 1 3 7 3 4 4 3 4 7 8 7 5 4 6 3 3 3 4 3 4 4 3 3 4 3 4 4 3 3 5 4 3 3 4 4 4 4 4 4 4
9 7 4 3 5 4 4 5 5 1 1 3 5 8 7 6 6 5 5 5 4 5 6 5 5 6 6 5 4 5 4 3 5 5 4 4 4 4 4 5 5 6 3
8 10 5 5 4 6 4 6 4 4 4 4 5 3 6 7 6 4 6 5 5 4 5 4 5 5 6 7 6 7 5 12 7 4 5 5 6 7 5 3 4 4 6
9 9 5 3 2 4 4 4 5 4 4 4 4 2 2 2 2 4 4 4 4 4 5 5 7 10 9 10 11 5 8 12 8 5 4 5 4 4 5 6 3 2 4
Wind_Direction
195 184 187 193 191 209 204 191 244 257 283 134 114 279 267 240 256 184 262 293 293 296 290 269 265 287 289 302 334 321 347 50 17 344 92 128 83 116 133 132 118 107 98
186 190 196 187 198 193 197 192 214 214 248 229 188 215 231 224 231 198 217 263 245 237 248 267 271 281 265 269 282 300 306 316 4 289 265 97 74 118 151 155 139 110 117
179 184 189 198 197 200 186 203 196 202 211 241 228 213 235 257 257 229 228 250 269 266 262 265 262 258 273 280 300 305 326 355 357 357 341 53 68 50 34 66 126 125 117
179 181 190 189 195 210 177 192 191 194 188 219 251 224 224 239 239 235 224 234 254 258 263 260 252 240 228 238 283 296 300 327 329 313 295 339 120 122 144 238 154 167 154
180 193 182 181 187 198 208 199 197 176 195 214 221 237 235 246 249 240 242 216 227 248 271 285 315 17 82 52 249 225 265 303 299 284 283 7 112 134 186 188 200 189 173
49 178 162 176 173 190 200 210 225 243 212 211 233 227 208 227 128 307 207 212 230 236 257 276 273 176 127 88 69 80 39 289 272 250 256 220 207 158 175 200 202 156 194
289 47 206 144 184 187 202 206 216 226 221 227 231 240 249 232 174 160 102 259 239 225 226 242 263 261 244 164 98 123 92 68 1 303 277 309 297 27 156 165 186 186 155
308 335 133 183 211 218 214 226 220 229 223 226 228 230 235 280 154 184 176 236 283 279 275 269 264 266 231 235 136 214 79 46 356 334 48 54 38 344 6 290 130 104 85
254 296 290 268 256 235 243 259 290 268 254 242 241 238 227 140 135 76 289 257 248 261 255 56 59 5 43 140 225 124 99 82 51 63 99 84 54 39 30 2 20 157 148
244 215 312 339 355 216 347 359 30 347 293 288 283 324 73 126 123 203 75 289 283 270 116 98 50 65 40 10 333 137 135 146 121 117 58 44 47 45 43 51 16 74 33
175 108 100 60 84 71 52 59 42 32 29 26 37 50 56 30 36 6 354 265 280 7 50 67 59 71 71 64 55 57 60 90 58 68 61 47 43 47 45 43 37 62 114
132 86 55 74 75 102 81 54 76 72 83 56 52 52 48 23 17 358 27 48 65 98 102 85 74 69 77 86 91 88 80 83 75 62 48 40 39 26 19 37 45 64 64
162 124 116 112 94 91 107 127 65 53 58 59 30 71 77 70 48 37 23 71 83 88 76 102 101 88 78 73 77 88 95 94 100 94 89 76 94 213 41 78 49 72 74
84 98 99 101 82 57 67 78 100 115 126 122 134 127 105 89 92 83 83 75 85 92 96 79 86 89 91 94 81 73 72 77 103 112 116 152 191 208 194 211 215 179 151
83 92 89 92 88 83 61 25 71 66 339 139 84 72 69 100 102 272 152 129 106 113 117 107 103 97 99 102 97 108 117 133 124 136 164 207 220 216 332 274 263 344 335
77 78 78 92 77 104 115 101 51 49 33 47 46 66 69 52 41 97 96 90 109 152 97 115 101 79 77 82 80 105 141 170 163 173 192 196 188 188 186 90 99 11 36
120 121 124 117 131 135 140 123 112 58 51 52 53 64 60 66 73 86 87 76 36 32 72 94 95 89 103 130 143 132 121 344 262 165 161 61 129 132 98 342 54 140 140
140 169 143 149 149 146 150 133 124 143 139 130 60 92 93 92 106 135 126 129 102 63 112 147 145 161 159 131 355 102 117 124 91 74 107 100 76 115 76 96 21 32 75
174 139 134 143 152 145 154 173 173 168 148 125 130 159 118 126 141 173 247 276 168 171 173 175 177 149 165 166 153 185 182 151 185 173 142 132 230 191 218 115 99 64 35
126 135 182 112 177 188 185 165 153 155 159 162 186 148 149 168 181 179 213 236 242 237 160 166 175 184 177 181 167 174 195 145 202 213 205 161 150 322 135 114 136 162 123
152 174 228 207 168 158 265 82 106 126 153 163 150 146 166 205 173 173 190 224 251 214 138 153 154 150 156 156 166 185 199 175 194 223 133 106 105 3 51 76 105 68 70
174 175 196 249 145 164 184 176 173 173 161 151 131 131 154 216 270 198 195 192 187 287 158 134 132 155 155 167 166 187 232 187 163 119 109 109 104 92 107 97 120 140 149
260 243 203 249 5 115 158 248 230 206 188 181 155 152 175 210 238 210 172 201 186 198 127 126 135 151 153 172 146 167 207 212 146 141 141 140 168 167 169 188 208 199 207
281 277 238 242 183 242 231 202 240 166 345 241 184 161 172 197 230 174 177 182 182 179 177 163 170 196 177 170 192 197 196 186 146 163 188 176 207 188 200 219 198 216 217
264 282 245 220 215 188 225 271 272 239 205 187 269 220 182 179 198 208 173 191 179 192 183 178 183 204 197 177 231 209 204 162 160 177 169 228 210 176 216 231 231 191 210
241 241 254 3 294 221 245 226 244 257 248 226 204 234 287 283 218 197 192 194 185 194 194 196 197 201 197 189 196 164 153 155 147 175 193 212 215 202 198 242 241 206 95